GW3451 Weather Reports


time (UTC)temp
C
wind
direction
speed
KPH
gust
KPH
rain 1hr
cm
rain 24hr
cm
rain mn
cm
humidity
%
barometer
mb
20260508065019 13 96 3.2 8.0 0.00 0.00 0.00 24 1016.9
20260508064019 13 4 3.2 6.4 0.00 0.00 0.00 24 1017.0
20260508063019 14 336 1.6 6.4 0.00 0.00 0.00 23 1017.0
20260508062040 15 110 6.4 9.7 0.00 0.00 0.00 21 1016.9
20260508061020 15 110 6.4 8.0 0.00 0.00 0.00 21 1016.8
20260508060020 15 114 6.4 11.3 0.00 0.00 0.00 22 1016.8
20260508055020 15 113 6.4 11.3 0.00 0.00 0.00 21 1016.8
20260508054020 15 115 6.4 9.7 0.00 0.00 0.00 21 1016.8
20260508053041 14 120 3.2 9.7 0.00 0.00 0.00 22 1016.8
20260508052018 15 117 4.8 9.7 0.00 0.00 0.00 23 1016.8
20260508051018 15 108 6.4 8.0 0.00 0.00 0.00 22 1016.8
20260508050021 15 120 3.2 8.0 0.00 0.00 0.00 22 1016.8
20260508045021 16 104 4.8 9.7 0.00 0.00 0.00 21 1016.8
20260508044018 16 108 6.4 9.7 0.00 0.00 0.00 21 1016.8
20260508043018 16 101 3.2 8.0 0.00 0.00 0.00 23 1016.8
20260508042039 16 106 4.8 6.4 0.00 0.00 0.00 23 1016.8
20260508041018 16 106 4.8 8.0 0.00 0.00 0.00 23 1016.8
20260508040019 16 111 3.2 6.4 0.00 0.00 0.00 22 1016.7
20260508035039 17 116 0.0 3.2 0.00 0.00 0.00 20 1016.6
20260508034019 17 55 0.0 3.2 0.00 0.00 0.00 19 1016.4
20260508033019 18 78 3.2 8.0 0.00 0.00 0.00 19 1016.2
20260508032021 18 56 3.2 8.0 0.00 0.00 0.00 17 1016.0
20260508031041 18 63 0.0 1.6 0.00 0.00 0.00 17 1015.8
20260508030020 18 44 0.0 3.2 0.00 0.00 0.00 16 1015.7
20260508025021 19 96 0.0 3.2 0.00 0.00 0.00 17 1015.7
20260508024021 19 331 0.0 3.2 0.00 0.00 0.00 17 1015.6
20260508023017 20 332 1.6 4.8 0.00 0.00 0.00 18 1015.5
20260508022018 20 215 0.0 3.2 0.00 0.00 0.00 17 1015.4
20260508021017 21 210 1.6 4.8 0.00 0.00 0.00 16 1015.2
20260508020021 21 236 1.6 6.4 0.00 0.00 0.00 16 1015.1
20260508015018 21 218 4.8 8.0 0.00 0.00 0.00 15 1015.0
20260508014018 22 220 3.2 8.0 0.00 0.00 0.00 16 1014.9
20260508013018 22 197 4.8 9.7 0.00 0.00 0.00 16 1014.8
20260508012018 22 180 3.2 8.0 0.00 0.00 0.00 15 1014.7
20260508011018 22 204 3.2 11.3 0.00 0.00 0.00 14 1014.6
20260508010018 23 199 6.4 12.9 0.00 0.00 0.00 14 1014.5
20260508005019 23 204 3.2 14.5 0.00 0.00 0.00 13 1014.5
20260508004019 23 217 3.2 9.7 0.00 0.00 0.00 13 1014.5
20260508003018 24 205 4.8 14.5 0.00 0.00 0.00 13 1014.5
20260508002036 24 269 3.2 11.3 0.00 0.00 0.00 13 1014.6
20260508001019 24 244 4.8 14.5 0.00 0.00 0.00 13 1014.7
20260508000020 24 236 4.8 14.5 0.00 0.00 0.00 13 1014.7
20260507235020 24 225 3.2 11.3 0.00 0.00 0.00 13 1014.7
20260507234017 23 241 4.8 14.5 0.00 0.00 0.00 13 1014.9
20260507233018 23 187 6.4 14.5 0.00 0.00 0.00 14 1014.9
20260507232020 23 228 6.4 16.1 0.00 0.00 0.00 13 1015.1
20260507231021 22 165 4.8 11.3 0.00 0.00 0.00 14 1015.2
20260507230018 23 146 4.8 11.3 0.00 0.00 0.00 15 1015.3
20260507225018 23 209 3.2 12.9 0.00 0.00 0.00 15 1015.4
20260507224019 23 174 4.8 14.5 0.00 0.00 0.00 15 1015.5
20260507223018 23 165 3.2 11.3 0.00 0.00 0.00 15 1015.6
20260507222019 23 203 6.4 16.1 0.00 0.00 0.00 16 1015.9
20260507221018 23 186 3.2 8.0 0.00 0.00 0.00 15 1016.0
20260507220018 22 194 4.8 11.3 0.00 0.00 0.00 17 1016.3
20260507215019 23 129 3.2 8.0 0.00 0.00 0.00 16 1016.5
20260507214019 22 153 3.2 12.9 0.00 0.00 0.00 17 1016.7
20260507213019 22 206 6.4 14.5 0.00 0.00 0.00 17 1017.0
20260507212019 21 112 3.2 8.0 0.00 0.00 0.00 19 1017.2
20260507211020 22 169 4.8 17.7 0.00 0.00 0.00 19 1017.3
20260507210020 22 274 4.8 14.5 0.00 0.00 0.00 18 1017.5
20260507205121 21 235 4.8 14.5 0.00 0.00 0.00 19 1017.8
20260507204038 22 209 6.4 20.9 0.00 0.00 0.00 20 1018.0
20260507203017 22 173 3.2 12.9 0.00 0.00 0.00 19 1018.1
20260507202021 22 275 4.8 12.9 0.00 0.00 0.00 19 1018.3
20260507201043 21 176 3.2 11.3 0.00 0.00 0.00 20 1018.5
20260507200019 20 350 3.2 9.7 0.00 0.00 0.00 21 1018.6
20260507195017 20 349 3.2 12.9 0.00 0.00 0.00 21 1018.7
20260507194018 21 305 4.8 16.1 0.00 0.00 0.00 19 1018.9
20260507193019 20 301 4.8 14.5 0.00 0.00 0.00 20 1019.1
20260507192018 20 247 6.4 17.7 0.00 0.00 0.00 21 1019.3
20260507191018 19 189 3.2 9.7 0.00 0.00 0.00 21 1019.5
20260507190019 18 301 3.2 9.7 0.00 0.00 0.00 22 1019.6
20260507185018 19 289 6.4 12.9 0.00 0.00 0.00 23 1019.9
20260507184019 19 219 3.2 12.9 0.00 0.00 0.00 23 1020.2
20260507183019 17 284 4.8 14.5 0.00 0.00 0.00 25 1020.3
20260507182019 17 5 8.0 14.5 0.00 0.00 0.00 27 1020.5
20260507181020 17 326 3.2 11.3 0.00 0.00 0.00 26 1020.7
20260507180019 16 324 4.8 11.3 0.00 0.00 0.00 27 1020.8
20260507175020 16 4 6.4 14.5 0.00 0.00 0.00 27 1020.9
20260507174018 15 308 6.4 17.7 0.00 0.00 0.00 28 1021.0
20260507173018 15 340 6.4 9.7 0.00 0.00 0.00 27 1021.1
20260507172041 15 333 4.8 14.5 0.00 0.00 0.00 29 1021.2
20260507171020 14 338 4.8 11.3 0.00 0.00 0.00 34 1021.5
20260507170018 14 1 8.0 17.7 0.00 0.00 0.00 36 1021.6
20260507165021 14 303 6.4 12.9 0.00 0.00 0.00 38 1021.6
20260507164021 13 31 4.8 12.9 0.00 0.00 0.00 39 1021.7
20260507163018 13 1 8.0 16.1 0.00 0.00 0.00 41 1021.7
20260507162038 13 357 8.0 17.7 0.00 0.00 0.00 42 1021.8
20260507161019 12 15 6.4 14.5 0.00 0.00 0.00 42 1021.9
20260507160021 12 346 6.4 14.5 0.00 0.00 0.00 40 1021.9
20260507155019 12 20 4.8 14.5 0.00 0.00 0.00 45 1022.0
20260507154019 11 14 4.8 11.3 0.00 0.00 0.00 48 1022.0
20260507153019 11 12 4.8 12.9 0.00 0.00 0.00 50 1022.1
20260507152020 10 40 3.2 8.0 0.00 0.00 0.00 53 1022.0
20260507151041 9 33 4.8 12.9 0.00 0.00 0.00 55 1022.0
20260507150020 8 9 6.4 12.9 0.00 0.00 0.00 60 1022.0
20260507145021 7 9 11.3 20.9 0.00 0.00 0.00 62 1022.0
20260507144040 7 11 11.3 20.9 0.00 0.00 0.00 64 1022.0
20260507143021 7 4 11.3 19.3 0.00 0.00 0.00 65 1022.0
20260507142021 7 15 8.0 14.5 0.00 0.00 0.00 66 1022.1
20260507141018 6 7 8.0 19.3 0.00 0.00 0.00 69 1022.1
20260507140042 6 359 8.0 14.5 0.00 0.00 0.00 70 1022.1
20260507135021 5 12 9.7 19.3 0.00 0.00 0.00 71 1022.1
20260507134042 5 5 9.7 20.9 0.00 0.00 0.00 72 1022.0
20260507133019 5 12 8.0 14.5 0.00 0.00 0.00 74 1021.9
20260507132018 4 10 9.7 16.1 0.00 0.00 0.00 76 1021.9
20260507131040 3 9 8.0 12.9 0.00 0.00 0.00 77 1021.9
20260507130022 3 11 9.7 16.1 0.00 0.00 0.00 79 1021.9
20260507125019 3 16 8.0 14.5 0.00 0.00 0.00 79 1021.8
20260507124019 3 21 8.0 14.5 0.00 0.00 0.00 79 1021.8
20260507123039 3 25 6.4 14.5 0.00 0.00 0.00 77 1021.6
20260507122019 3 34 6.4 12.9 0.00 0.00 0.00 77 1021.5
20260507121040 3 23 6.4 12.9 0.00 0.00 0.00 77 1021.5
20260507120019 3 8 9.7 16.1 0.00 0.00 0.00 76 1021.4
20260507115020 3 15 9.7 16.1 0.00 0.00 0.00 74 1021.5
20260507114040 3 16 9.7 14.5 0.00 0.00 0.00 74 1021.5
20260507113020 3 16 11.3 17.7 0.00 0.00 0.00 71 1021.4
20260507112040 3 16 8.0 16.1 0.00 0.00 0.00 65 1021.4
20260507111017 3 13 6.4 9.7 0.00 0.00 0.00 65 1021.3
20260507110021 3 15 3.2 6.4 0.00 0.00 0.00 66 1021.3
20260507105022 4 17 6.4 11.3 0.00 0.00 0.00 67 1021.3
20260507104021 4 13 6.4 14.5 0.00 0.00 0.00 68 1021.4
20260507103018 4 28 4.8 12.9 0.00 0.00 0.00 70 1021.5
20260507102018 4 8 9.7 12.9 0.00 0.00 0.00 69 1021.3
20260507101018 4 19 4.8 8.0 0.00 0.00 0.00 69 1021.3
20260507100022 5 11 6.4 9.7 0.00 0.00 0.00 68 1021.2
20260507095019 5 5 6.4 9.7 0.00 0.00 0.00 67 1021.2
20260507094019 5 360 6.4 11.3 0.00 0.00 0.00 64 1021.1
20260507093019 5 353 8.0 14.5 0.00 0.00 0.00 61 1021.0
20260507092101 6 359 4.8 9.7 0.00 0.00 0.00 59 1021.0
20260507091019 6 20 4.8 9.7 0.00 0.00 0.00 57 1021.0
20260507090019 7 19 8.0 14.5 0.00 0.00 0.00 49 1021.1
20260507085020 7 11 4.8 9.7 0.00 0.00 0.00 40 1021.0
20260507084021 8 14 3.2 6.4 0.00 0.00 0.00 38 1021.0
20260507083102 8 356 4.8 8.0 0.00 0.00 0.00 35 1021.0
20260507082040 9 12 6.4 9.7 0.00 0.00 0.00 33 1021.1
20260507081018 8 19 8.0 14.5 0.00 0.00 0.00 32 1021.1
20260507080021 8 48 3.2 12.9 0.00 0.00 0.00 34 1021.0
20260507075020 8 55 1.6 4.8 0.00 0.00 0.00 35 1020.9
20260507074021 8 55 1.6 3.2 0.00 0.00 0.00 34 1020.8
20260507073019 9 24 6.4 11.3 0.00 0.00 0.00 32 1020.9
20260507072018 9 28 6.4 11.3 0.00 0.00 0.00 33 1020.7
20260507071020 9 46 1.6 6.4 0.00 0.00 0.00 34 1020.7
20260507070021 10 26 6.4 11.3 0.00 0.00 0.00 33 1020.6